Year,Month,Day,Hour,Minute,Value (Times are PST for temperature in C)
2018,04,24,00,00,6.50
2018,04,24,00,01,6.40
2018,04,24,00,02,6.40
2018,04,24,00,03,6.40
2018,04,24,00,04,6.40
2018,04,24,00,05,6.40
2018,04,24,00,06,6.40
2018,04,24,00,07,6.30
2018,04,24,00,08,6.30
2018,04,24,00,09,6.30
2018,04,24,00,10,6.30
2018,04,24,00,11,6.30
2018,04,24,00,12,6.20
2018,04,24,00,13,6.20
2018,04,24,00,14,6.20
2018,04,24,00,15,6.20
2018,04,24,00,16,6.20
2018,04,24,00,17,6.10
2018,04,24,00,18,6.10
2018,04,24,00,19,6.10
2018,04,24,00,20,6.10
2018,04,24,00,21,6.10
2018,04,24,00,22,6.10
2018,04,24,00,23,6.10
2018,04,24,00,24,6.10
2018,04,24,00,25,6.10
2018,04,24,00,26,6.10
2018,04,24,00,27,6.10
2018,04,24,00,28,6.10
2018,04,24,00,29,6.10
2018,04,24,00,30,6.10
2018,04,24,00,31,6.10
2018,04,24,00,32,6.10
2018,04,24,00,33,6.10
2018,04,24,00,34,6.10
2018,04,24,00,35,6.10
2018,04,24,00,36,6.00
2018,04,24,00,37,6.00
2018,04,24,00,38,6.00
2018,04,24,00,39,6.00
2018,04,24,00,40,6.00
2018,04,24,00,41,6.00
2018,04,24,00,42,5.90
2018,04,24,00,43,5.90
2018,04,24,00,44,5.90
2018,04,24,00,45,5.90
2018,04,24,00,46,5.90
2018,04,24,00,47,5.90
2018,04,24,00,48,5.90
2018,04,24,00,49,5.90
2018,04,24,00,50,5.90
2018,04,24,00,51,5.80
2018,04,24,00,52,5.80
2018,04,24,00,53,5.80
2018,04,24,00,54,5.80
2018,04,24,00,55,5.80
2018,04,24,00,56,5.80
2018,04,24,00,57,5.80
2018,04,24,00,58,5.80
2018,04,24,00,59,5.80
2018,04,24,01,00,5.70
2018,04,24,01,01,5.70
2018,04,24,01,02,5.70
2018,04,24,01,03,5.70
2018,04,24,01,04,5.70
2018,04,24,01,05,5.70
2018,04,24,01,06,5.70
2018,04,24,01,07,5.70
2018,04,24,01,08,5.70
2018,04,24,01,09,5.70
2018,04,24,01,10,5.70
2018,04,24,01,11,5.60
2018,04,24,01,12,5.60
2018,04,24,01,13,5.60
2018,04,24,01,14,5.60
2018,04,24,01,15,5.60
2018,04,24,01,16,5.60
2018,04,24,01,17,5.60
2018,04,24,01,18,5.60
2018,04,24,01,19,5.60
2018,04,24,01,20,5.60
2018,04,24,01,21,5.60
2018,04,24,01,22,5.60
2018,04,24,01,23,5.50
2018,04,24,01,24,5.50
2018,04,24,01,25,5.50
2018,04,24,01,26,5.50
2018,04,24,01,27,5.50
2018,04,24,01,28,5.40
2018,04,24,01,29,5.40
2018,04,24,01,30,5.40
2018,04,24,01,31,5.40
2018,04,24,01,32,5.40
2018,04,24,01,33,5.40
2018,04,24,01,34,5.40
2018,04,24,01,35,5.40
2018,04,24,01,36,5.40
2018,04,24,01,37,5.30
2018,04,24,01,38,5.30
2018,04,24,01,39,5.30
2018,04,24,01,40,5.30
2018,04,24,01,41,5.30
2018,04,24,01,42,5.30
2018,04,24,01,43,5.30
2018,04,24,01,44,5.30
2018,04,24,01,45,5.30
2018,04,24,01,46,5.20
2018,04,24,01,47,5.20
2018,04,24,01,48,5.20
2018,04,24,01,49,5.20
2018,04,24,01,50,5.20
2018,04,24,01,51,5.20
2018,04,24,01,52,5.20
2018,04,24,01,53,5.20
2018,04,24,01,54,5.20
2018,04,24,01,55,5.10
2018,04,24,01,56,5.10
2018,04,24,01,57,5.10
2018,04,24,01,58,5.10
2018,04,24,01,59,5.10
2018,04,24,02,00,5.10
2018,04,24,02,01,5.10
2018,04,24,02,02,5.10
2018,04,24,02,03,5.10
2018,04,24,02,04,5.10
2018,04,24,02,05,5.10
2018,04,24,02,06,5.10
2018,04,24,02,07,5.10
2018,04,24,02,08,5.10
2018,04,24,02,09,5.00
2018,04,24,02,10,5.00
2018,04,24,02,11,5.00
2018,04,24,02,12,4.90
2018,04,24,02,13,4.90
2018,04,24,02,14,4.90
2018,04,24,02,15,4.90
2018,04,24,02,16,4.90
2018,04,24,02,17,4.90
2018,04,24,02,18,4.90
2018,04,24,02,19,4.90
2018,04,24,02,20,4.80
2018,04,24,02,21,4.80
2018,04,24,02,22,4.80
2018,04,24,02,23,4.80
2018,04,24,02,24,4.80
2018,04,24,02,25,4.80
2018,04,24,02,26,4.80
2018,04,24,02,27,4.80
2018,04,24,02,28,4.80
2018,04,24,02,29,4.80
2018,04,24,02,30,4.70
2018,04,24,02,31,4.70
2018,04,24,02,32,4.70
2018,04,24,02,33,4.70
2018,04,24,02,34,4.70
2018,04,24,02,35,4.70
2018,04,24,02,36,4.70
2018,04,24,02,37,4.70
2018,04,24,02,38,4.70
2018,04,24,02,39,4.70
2018,04,24,02,40,4.70
2018,04,24,02,41,4.70
2018,04,24,02,42,4.70
2018,04,24,02,43,4.70
2018,04,24,02,44,4.70
2018,04,24,02,45,4.70
2018,04,24,02,46,4.70
2018,04,24,02,47,4.70
2018,04,24,02,48,4.70
2018,04,24,02,49,4.70
2018,04,24,02,50,4.70
2018,04,24,02,51,4.70
2018,04,24,02,52,4.60
2018,04,24,02,53,4.60
2018,04,24,02,54,4.60
2018,04,24,02,55,4.60
2018,04,24,02,56,4.60
2018,04,24,02,57,4.60
2018,04,24,02,58,4.60
2018,04,24,02,59,4.60
2018,04,24,03,00,4.60
2018,04,24,03,01,4.50
2018,04,24,03,02,4.50
2018,04,24,03,03,4.50
2018,04,24,03,04,4.50
2018,04,24,03,05,4.50
2018,04,24,03,06,4.40
2018,04,24,03,07,4.40
2018,04,24,03,08,4.40
2018,04,24,03,09,4.40
2018,04,24,03,10,4.40
2018,04,24,03,11,4.40
2018,04,24,03,12,4.40
2018,04,24,03,13,4.40
2018,04,24,03,14,4.40
2018,04,24,03,15,4.30
2018,04,24,03,16,4.30
2018,04,24,03,17,4.30
2018,04,24,03,18,4.30
2018,04,24,03,19,4.30
2018,04,24,03,20,4.30
2018,04,24,03,21,4.30
2018,04,24,03,22,4.30
2018,04,24,03,23,4.30
2018,04,24,03,24,4.20
2018,04,24,03,25,4.20
2018,04,24,03,26,4.20
2018,04,24,03,27,4.20
2018,04,24,03,28,4.20
2018,04,24,03,29,4.20
2018,04,24,03,30,4.20
2018,04,24,03,31,4.20
2018,04,24,03,32,4.20
2018,04,24,03,33,4.20
2018,04,24,03,34,4.20
2018,04,24,03,35,4.20
2018,04,24,03,36,4.20
2018,04,24,03,37,4.20
2018,04,24,03,38,4.20
2018,04,24,03,39,4.20
2018,04,24,03,40,4.10
2018,04,24,03,41,4.10
2018,04,24,03,42,4.10
2018,04,24,03,43,4.10
2018,04,24,03,44,4.10
2018,04,24,03,45,4.10
2018,04,24,03,46,4.10
2018,04,24,03,47,4.10
2018,04,24,03,48,4.10
2018,04,24,03,49,4.10
2018,04,24,03,50,4.10
2018,04,24,03,51,4.10
2018,04,24,03,52,4.10
2018,04,24,03,53,4.10
2018,04,24,03,54,4.10
2018,04,24,03,55,4.10
2018,04,24,03,56,4.10
2018,04,24,03,57,4.10
2018,04,24,03,58,4.00
2018,04,24,03,59,4.00
2018,04,24,04,00,4.00
2018,04,24,04,01,4.00
2018,04,24,04,02,4.00
2018,04,24,04,03,4.00
2018,04,24,04,04,3.90
2018,04,24,04,05,3.90
2018,04,24,04,06,3.90
2018,04,24,04,07,3.90
2018,04,24,04,08,3.90
2018,04,24,04,09,3.90
2018,04,24,04,10,3.90
2018,04,24,04,11,3.90
2018,04,24,04,12,3.90
2018,04,24,04,13,3.80
2018,04,24,04,14,3.80
2018,04,24,04,15,3.80
2018,04,24,04,16,3.80
2018,04,24,04,17,3.80
2018,04,24,04,18,3.80
2018,04,24,04,19,3.80
2018,04,24,04,20,3.80
2018,04,24,04,21,3.80
2018,04,24,04,22,3.80
2018,04,24,04,23,3.80
2018,04,24,04,24,3.80
2018,04,24,04,25,3.80
2018,04,24,04,26,3.80
2018,04,24,04,27,3.80
2018,04,24,04,28,3.80
2018,04,24,04,29,3.80
2018,04,24,04,30,3.80
2018,04,24,04,31,3.80
2018,04,24,04,32,3.80
2018,04,24,04,33,3.80
2018,04,24,04,34,3.80
2018,04,24,04,35,3.80
2018,04,24,04,36,3.80
2018,04,24,04,37,3.80
2018,04,24,04,38,3.80
2018,04,24,04,39,3.80
2018,04,24,04,40,3.80
2018,04,24,04,41,3.80
2018,04,24,04,42,3.80
2018,04,24,04,43,3.80
2018,04,24,04,44,3.80
2018,04,24,04,45,3.70
2018,04,24,04,46,3.70
2018,04,24,04,47,3.70
2018,04,24,04,48,3.70
2018,04,24,04,49,3.70
2018,04,24,04,50,3.70
2018,04,24,04,51,3.70
2018,04,24,04,52,3.70
2018,04,24,04,53,3.70
2018,04,24,04,54,3.70
2018,04,24,04,55,3.70
2018,04,24,04,56,3.70
2018,04,24,04,57,3.70
2018,04,24,04,58,3.70
2018,04,24,04,59,3.60
2018,04,24,05,00,3.60
2018,04,24,05,01,3.60
2018,04,24,05,02,3.60
2018,04,24,05,03,3.60
2018,04,24,05,04,3.60
2018,04,24,05,05,3.60
2018,04,24,05,06,3.60
2018,04,24,05,07,3.60
2018,04,24,05,08,3.60
2018,04,24,05,09,3.60
2018,04,24,05,10,3.60
2018,04,24,05,11,3.50
2018,04,24,05,12,3.50
2018,04,24,05,13,3.50
2018,04,24,05,14,3.50
2018,04,24,05,15,3.50
2018,04,24,05,16,3.50
2018,04,24,05,17,3.50
2018,04,24,05,18,3.50
2018,04,24,05,19,3.50
2018,04,24,05,20,3.50
2018,04,24,05,21,3.50
2018,04,24,05,22,3.50
2018,04,24,05,23,3.50
2018,04,24,05,24,3.50
2018,04,24,05,25,3.50
2018,04,24,05,26,3.40
2018,04,24,05,27,3.40
2018,04,24,05,28,3.40
2018,04,24,05,29,3.40
2018,04,24,05,30,3.40
2018,04,24,05,31,3.40
2018,04,24,05,32,3.40
2018,04,24,05,33,3.40
2018,04,24,05,34,3.40
2018,04,24,05,35,3.40
2018,04,24,05,36,3.40
2018,04,24,05,37,3.40
2018,04,24,05,38,3.40
2018,04,24,05,39,3.40
2018,04,24,05,40,3.40
2018,04,24,05,41,3.40
2018,04,24,05,42,3.40
2018,04,24,05,43,3.40
2018,04,24,05,44,3.40
2018,04,24,05,45,3.40
2018,04,24,05,46,3.40
2018,04,24,05,47,3.40
2018,04,24,05,48,3.40
2018,04,24,05,49,3.40
2018,04,24,05,50,3.40
2018,04,24,05,51,3.40
2018,04,24,05,52,3.40
2018,04,24,05,53,3.30
2018,04,24,05,54,3.30
2018,04,24,05,55,3.30
2018,04,24,05,56,3.30
2018,04,24,05,57,3.30
2018,04,24,05,58,3.30
2018,04,24,05,59,3.30
2018,04,24,06,00,3.30
2018,04,24,06,01,3.30
2018,04,24,06,02,3.30
2018,04,24,06,03,3.30
2018,04,24,06,04,3.30
2018,04,24,06,05,3.30
2018,04,24,06,06,3.30
2018,04,24,06,07,3.30
2018,04,24,06,08,3.30
2018,04,24,06,09,3.30
2018,04,24,06,10,3.30
2018,04,24,06,11,3.30
2018,04,24,06,12,3.30
2018,04,24,06,13,3.30
2018,04,24,06,14,3.30
2018,04,24,06,15,3.30
2018,04,24,06,16,3.30
2018,04,24,06,17,3.30
2018,04,24,06,18,3.30
2018,04,24,06,19,3.30
2018,04,24,06,20,3.30
2018,04,24,06,21,3.30
2018,04,24,06,22,3.30
2018,04,24,06,23,3.30
2018,04,24,06,24,3.30
2018,04,24,06,25,3.30
2018,04,24,06,26,3.30
2018,04,24,06,27,3.20
2018,04,24,06,28,3.20
2018,04,24,06,29,3.20
2018,04,24,06,30,3.20
2018,04,24,06,31,3.30
2018,04,24,06,32,3.20
2018,04,24,06,33,3.30
2018,04,24,06,34,3.30
2018,04,24,06,35,3.30
2018,04,24,06,36,3.30
2018,04,24,06,37,3.30
2018,04,24,06,38,3.30
2018,04,24,06,39,3.30
2018,04,24,06,40,3.30
2018,04,24,06,41,3.30
2018,04,24,06,42,3.30
2018,04,24,06,43,3.30
2018,04,24,06,44,3.30
2018,04,24,06,45,3.30
2018,04,24,06,46,3.30
2018,04,24,06,47,3.30
2018,04,24,06,48,3.30
2018,04,24,06,49,3.30
2018,04,24,06,50,3.40
2018,04,24,06,51,3.40
2018,04,24,06,52,3.40
2018,04,24,06,53,3.40
2018,04,24,06,54,3.40
2018,04,24,06,55,3.40
2018,04,24,06,56,3.40
2018,04,24,06,57,3.40
2018,04,24,06,58,3.40
2018,04,24,06,59,3.40
2018,04,24,07,00,3.40
2018,04,24,07,01,3.40
2018,04,24,07,02,3.40
2018,04,24,07,03,3.40
2018,04,24,07,04,3.40
2018,04,24,07,05,3.40
2018,04,24,07,06,3.40
2018,04,24,07,07,3.50
2018,04,24,07,08,3.50
2018,04,24,07,09,3.50
2018,04,24,07,10,3.50
2018,04,24,07,11,3.50
2018,04,24,07,12,3.50
2018,04,24,07,13,3.50
2018,04,24,07,14,3.50
2018,04,24,07,15,3.50
2018,04,24,07,16,3.50
2018,04,24,07,17,3.50
2018,04,24,07,18,3.50
2018,04,24,07,19,3.50
2018,04,24,07,20,3.50
2018,04,24,07,21,3.50
2018,04,24,07,22,3.60
2018,04,24,07,23,3.60
2018,04,24,07,24,3.60
2018,04,24,07,25,3.60
2018,04,24,07,26,3.60
2018,04,24,07,27,3.60
2018,04,24,07,28,3.60
2018,04,24,07,29,3.60
2018,04,24,07,30,3.60
2018,04,24,07,31,3.60
2018,04,24,07,32,3.60
2018,04,24,07,33,3.60
2018,04,24,07,34,3.60
2018,04,24,07,35,3.60
2018,04,24,07,36,3.60
2018,04,24,07,37,3.70
2018,04,24,07,38,3.70
2018,04,24,07,39,3.70
2018,04,24,07,40,3.70
2018,04,24,07,41,3.70
2018,04,24,07,42,3.70
2018,04,24,07,43,3.70
2018,04,24,07,44,3.70
2018,04,24,07,45,3.70
2018,04,24,07,46,3.70
2018,04,24,07,47,3.70
2018,04,24,07,48,3.70
2018,04,24,07,49,3.80
2018,04,24,07,50,3.80
2018,04,24,07,51,3.80
2018,04,24,07,52,3.80
2018,04,24,07,53,3.80
2018,04,24,07,54,3.80
2018,04,24,07,55,3.80
2018,04,24,07,56,3.90
2018,04,24,07,57,3.90
2018,04,24,07,58,3.90
2018,04,24,07,59,3.90
2018,04,24,08,00,3.90
2018,04,24,08,01,3.90
2018,04,24,08,02,4.00
2018,04,24,08,03,4.00
2018,04,24,08,04,4.00
2018,04,24,08,05,4.00
2018,04,24,08,06,4.10
2018,04,24,08,07,4.10
2018,04,24,08,08,4.10
2018,04,24,08,09,4.10
2018,04,24,08,10,4.10
2018,04,24,08,11,4.10
2018,04,24,08,12,4.10
2018,04,24,08,13,4.10
2018,04,24,08,14,4.10
2018,04,24,08,15,4.10
2018,04,24,08,16,4.10
2018,04,24,08,17,4.10
2018,04,24,08,18,4.10
2018,04,24,08,19,4.20
2018,04,24,08,20,4.20
2018,04,24,08,21,4.20
2018,04,24,08,22,4.20
2018,04,24,08,23,4.20
2018,04,24,08,24,4.30
2018,04,24,08,25,4.30
2018,04,24,08,26,4.30
2018,04,24,08,27,4.30
2018,04,24,08,28,4.40
2018,04,24,08,29,4.40
2018,04,24,08,30,4.40
2018,04,24,08,31,4.50
2018,04,24,08,32,4.50
2018,04,24,08,33,4.60
2018,04,24,08,34,4.60
2018,04,24,08,35,4.60
2018,04,24,08,36,4.70
2018,04,24,08,37,4.70
2018,04,24,08,38,4.70
2018,04,24,08,39,4.80
2018,04,24,08,40,4.80
2018,04,24,08,41,4.80
2018,04,24,08,42,4.90
2018,04,24,08,43,4.90
2018,04,24,08,44,5.00
2018,04,24,08,45,5.00
2018,04,24,08,46,5.10
2018,04,24,08,47,5.10
2018,04,24,08,48,5.20
2018,04,24,08,49,5.20
2018,04,24,08,50,5.20
2018,04,24,08,51,5.30
2018,04,24,08,52,5.30
2018,04,24,08,53,5.30
2018,04,24,08,54,5.40
2018,04,24,08,55,5.40
2018,04,24,08,56,5.50
2018,04,24,08,57,5.60
2018,04,24,08,58,5.70
2018,04,24,08,59,5.80
2018,04,24,09,00,5.90
2018,04,24,09,01,6.00
2018,04,24,09,02,6.00
2018,04,24,09,03,6.10
2018,04,24,09,04,6.20
2018,04,24,09,05,6.30
2018,04,24,09,06,6.40
2018,04,24,09,07,6.50
2018,04,24,09,08,6.60
2018,04,24,09,09,6.70
2018,04,24,09,10,6.80
2018,04,24,09,11,6.90
2018,04,24,09,12,7.00
2018,04,24,09,13,7.10
2018,04,24,09,14,7.20
2018,04,24,09,15,7.20
2018,04,24,09,16,7.30
2018,04,24,09,17,7.40
2018,04,24,09,18,7.50
2018,04,24,09,19,7.60
2018,04,24,09,20,7.60
2018,04,24,09,21,7.70
2018,04,24,09,22,7.70
2018,04,24,09,23,7.70
2018,04,24,09,24,7.80
2018,04,24,09,25,7.90
2018,04,24,09,26,7.90
2018,04,24,09,27,8.00
2018,04,24,09,28,8.00
2018,04,24,09,29,8.10
2018,04,24,09,30,8.10
2018,04,24,09,31,8.10
2018,04,24,09,32,8.20
2018,04,24,09,33,8.20
2018,04,24,09,34,8.30
2018,04,24,09,35,8.30
2018,04,24,09,36,8.40
2018,04,24,09,37,8.40
2018,04,24,09,38,8.50
2018,04,24,09,39,8.50
2018,04,24,09,40,8.60
2018,04,24,09,41,8.70
2018,04,24,09,42,8.80
2018,04,24,09,43,8.90
2018,04,24,09,44,9.00
2018,04,24,09,45,9.10
2018,04,24,09,46,9.20
2018,04,24,09,47,9.30
2018,04,24,09,48,9.50
2018,04,24,09,49,9.60
2018,04,24,09,50,9.80
2018,04,24,09,51,9.90
2018,04,24,09,52,10.00
2018,04,24,09,53,10.10
2018,04,24,09,54,10.20
2018,04,24,09,55,10.30
2018,04,24,09,56,10.40
2018,04,24,09,57,10.50
2018,04,24,09,58,10.60
2018,04,24,09,59,10.70
2018,04,24,10,00,10.80
2018,04,24,10,01,10.80
2018,04,24,10,02,10.90
2018,04,24,10,03,11.00
2018,04,24,10,04,11.00
2018,04,24,10,05,11.10
2018,04,24,10,06,11.10
2018,04,24,10,07,11.20
2018,04,24,10,08,11.30
2018,04,24,10,09,11.30
2018,04,24,10,10,11.50
2018,04,24,10,11,11.60
2018,04,24,10,12,11.70
2018,04,24,10,13,11.80
2018,04,24,10,14,11.90
2018,04,24,10,15,11.90
2018,04,24,10,16,12.00
2018,04,24,10,17,12.00
2018,04,24,10,18,12.10
2018,04,24,10,19,12.10
2018,04,24,10,20,12.20
2018,04,24,10,21,12.20
2018,04,24,10,22,12.20
2018,04,24,10,23,12.30
2018,04,24,10,24,12.30
2018,04,24,10,25,12.40
2018,04,24,10,26,12.50
2018,04,24,10,27,12.60
2018,04,24,10,28,12.70
2018,04,24,10,29,12.80
2018,04,24,10,30,12.80
2018,04,24,10,31,12.90
2018,04,24,10,32,13.00
2018,04,24,10,33,13.10
2018,04,24,10,34,13.20
2018,04,24,10,35,13.20
2018,04,24,10,36,13.30
2018,04,24,10,37,13.30
2018,04,24,10,38,13.30
2018,04,24,10,39,13.30
2018,04,24,10,40,13.40
2018,04,24,10,41,13.40
2018,04,24,10,42,13.40
2018,04,24,10,43,13.40
2018,04,24,10,44,13.40
2018,04,24,10,45,13.40
2018,04,24,10,46,13.40
2018,04,24,10,47,13.40
2018,04,24,10,48,13.40
2018,04,24,10,49,13.40
2018,04,24,10,50,13.40
2018,04,24,10,51,13.40
2018,04,24,10,52,13.40
2018,04,24,10,53,13.40
2018,04,24,10,54,13.50
2018,04,24,10,55,13.50
2018,04,24,10,56,13.50
2018,04,24,10,57,13.60
2018,04,24,10,58,13.60
2018,04,24,10,59,13.60
2018,04,24,11,00,13.70
2018,04,24,11,01,13.70
2018,04,24,11,02,13.80
2018,04,24,11,03,13.80
2018,04,24,11,04,13.80
2018,04,24,11,05,13.90
2018,04,24,11,06,13.90
2018,04,24,11,07,14.00
2018,04,24,11,08,14.00
2018,04,24,11,09,14.10
2018,04,24,11,10,14.10
2018,04,24,11,11,14.20
2018,04,24,11,12,14.20
2018,04,24,11,13,14.30
2018,04,24,11,14,14.30
2018,04,24,11,15,14.40
2018,04,24,11,16,14.40
2018,04,24,11,17,14.40
2018,04,24,11,18,14.50
2018,04,24,11,19,14.50
2018,04,24,11,20,14.60
2018,04,24,11,21,14.60
2018,04,24,11,22,14.60
2018,04,24,11,23,14.60
2018,04,24,11,24,14.70
2018,04,24,11,25,14.70
2018,04,24,11,26,14.70
2018,04,24,11,27,14.70
2018,04,24,11,28,14.80
2018,04,24,11,29,14.80
2018,04,24,11,30,14.80
2018,04,24,11,31,14.80
2018,04,24,11,32,14.90
2018,04,24,11,33,15.00
2018,04,24,11,34,15.00
2018,04,24,11,35,15.00
2018,04,24,11,36,15.00
2018,04,24,11,37,15.00
2018,04,24,11,38,15.00
2018,04,24,11,39,15.10
2018,04,24,11,40,15.20
2018,04,24,11,41,15.20
2018,04,24,11,42,15.30
2018,04,24,11,43,15.30
2018,04,24,11,44,15.30
2018,04,24,11,45,15.40
2018,04,24,11,46,15.40
2018,04,24,11,47,15.40
2018,04,24,11,48,15.50
2018,04,24,11,49,15.50
2018,04,24,11,50,15.50
2018,04,24,11,51,15.50
2018,04,24,11,52,15.60
2018,04,24,11,53,15.60
2018,04,24,11,54,15.60
2018,04,24,11,55,15.60
2018,04,24,11,56,15.70
2018,04,24,11,57,15.70
2018,04,24,11,58,15.80
2018,04,24,11,59,15.80
2018,04,24,12,00,15.90
2018,04,24,12,01,16.00
2018,04,24,12,02,16.10
2018,04,24,12,03,16.20
2018,04,24,12,04,16.30
2018,04,24,12,05,16.30
2018,04,24,12,06,16.40
2018,04,24,12,07,16.50
2018,04,24,12,08,16.50
2018,04,24,12,09,16.60
2018,04,24,12,10,16.60
2018,04,24,12,11,16.60
2018,04,24,12,12,16.60
2018,04,24,12,13,16.60
2018,04,24,12,14,16.60
2018,04,24,12,15,16.60
2018,04,24,12,16,16.60
2018,04,24,12,17,16.60
2018,04,24,12,18,16.60
2018,04,24,12,19,16.60
2018,04,24,12,20,16.60
2018,04,24,12,21,16.70
2018,04,24,12,22,16.70
2018,04,24,12,23,16.70
2018,04,24,12,24,16.80
2018,04,24,12,25,16.80
2018,04,24,12,26,16.80
2018,04,24,12,27,16.80
2018,04,24,12,28,16.90
2018,04,24,12,29,16.90
2018,04,24,12,30,17.00
2018,04,24,12,31,17.00
2018,04,24,12,32,17.10
2018,04,24,12,33,17.10
2018,04,24,12,34,17.10
2018,04,24,12,35,17.10
2018,04,24,12,36,17.10
2018,04,24,12,37,17.10
2018,04,24,12,38,17.00
2018,04,24,12,39,17.00
2018,04,24,12,40,17.00
2018,04,24,12,41,17.00
2018,04,24,12,42,17.10
2018,04,24,12,43,17.10
2018,04,24,12,44,17.10
2018,04,24,12,45,17.10
2018,04,24,12,46,17.10
2018,04,24,12,47,17.20
2018,04,24,12,48,17.20
2018,04,24,12,49,17.20
2018,04,24,12,50,17.20
2018,04,24,12,51,17.20
2018,04,24,12,52,17.20
2018,04,24,12,53,17.20
2018,04,24,12,54,17.20
2018,04,24,12,55,17.30
2018,04,24,12,56,17.30
2018,04,24,12,57,17.30
2018,04,24,12,58,17.30
2018,04,24,12,59,17.30
2018,04,24,13,00,17.30
2018,04,24,13,01,17.30
2018,04,24,13,02,17.30
2018,04,24,13,03,17.40
2018,04,24,13,04,17.40
2018,04,24,13,05,17.50
2018,04,24,13,06,17.50
2018,04,24,13,07,17.60
2018,04,24,13,08,17.60
2018,04,24,13,09,17.60
2018,04,24,13,10,17.70
2018,04,24,13,11,17.70
2018,04,24,13,12,17.70
2018,04,24,13,13,17.70
2018,04,24,13,14,17.80
2018,04,24,13,15,17.80
2018,04,24,13,16,17.80
2018,04,24,13,17,17.80
2018,04,24,13,18,17.80
2018,04,24,13,19,17.80
2018,04,24,13,20,17.80
2018,04,24,13,21,17.80
2018,04,24,13,22,17.90
2018,04,24,13,23,18.00
2018,04,24,13,24,18.00
2018,04,24,13,25,18.00
2018,04,24,13,26,18.00
2018,04,24,13,27,18.00
2018,04,24,13,28,18.00
2018,04,24,13,29,18.00
2018,04,24,13,30,18.00
2018,04,24,13,31,18.00
2018,04,24,13,32,18.10
2018,04,24,13,33,18.10
2018,04,24,13,34,18.10
2018,04,24,13,35,18.10
2018,04,24,13,36,18.10
2018,04,24,13,37,18.10
2018,04,24,13,38,18.10
2018,04,24,13,39,18.10
2018,04,24,13,40,18.00
2018,04,24,13,41,18.00
2018,04,24,13,42,17.90
2018,04,24,13,43,17.90
2018,04,24,13,44,17.90
2018,04,24,13,45,17.90
2018,04,24,13,46,17.90
2018,04,24,13,47,17.90
2018,04,24,13,48,17.90
2018,04,24,13,49,18.00
2018,04,24,13,50,18.00
2018,04,24,13,51,18.00
2018,04,24,13,52,18.10
2018,04,24,13,53,18.10
2018,04,24,13,54,18.20
2018,04,24,13,55,18.20
2018,04,24,13,56,18.30
2018,04,24,13,57,18.30
2018,04,24,13,58,18.40
2018,04,24,13,59,18.40
2018,04,24,14,00,18.50
2018,04,24,14,01,18.50
2018,04,24,14,02,18.50
2018,04,24,14,03,18.50
2018,04,24,14,04,18.50
2018,04,24,14,05,18.50
2018,04,24,14,06,18.50
2018,04,24,14,07,18.50
2018,04,24,14,08,18.50
2018,04,24,14,09,18.40
2018,04,24,14,10,18.40
2018,04,24,14,11,18.50
2018,04,24,14,12,18.50
2018,04,24,14,13,18.60
2018,04,24,14,14,18.70
2018,04,24,14,15,18.70
2018,04,24,14,16,18.80
2018,04,24,14,17,18.80
2018,04,24,14,18,18.90
2018,04,24,14,19,18.90
2018,04,24,14,20,18.90
2018,04,24,14,21,18.80
2018,04,24,14,22,18.80
2018,04,24,14,23,18.80
2018,04,24,14,24,18.80
2018,04,24,14,25,18.80
2018,04,24,14,26,18.80
2018,04,24,14,27,18.90
2018,04,24,14,28,18.90
2018,04,24,14,29,19.00
2018,04,24,14,30,19.10
2018,04,24,14,31,19.10
2018,04,24,14,32,19.10
2018,04,24,14,33,19.10
2018,04,24,14,34,19.20
2018,04,24,14,35,19.20
2018,04,24,14,36,19.20
2018,04,24,14,37,19.30
2018,04,24,14,38,19.30
2018,04,24,14,39,19.30
2018,04,24,14,40,19.30
2018,04,24,14,41,19.40
2018,04,24,14,42,19.40
2018,04,24,14,43,19.40
2018,04,24,14,44,19.40
2018,04,24,14,45,19.40
2018,04,24,14,46,19.40
2018,04,24,14,47,19.40
2018,04,24,14,48,19.40
2018,04,24,14,49,19.50
2018,04,24,14,50,19.50
2018,04,24,14,51,19.50
2018,04,24,14,52,19.60
2018,04,24,14,53,19.60
2018,04,24,14,54,19.70
2018,04,24,14,55,19.80
2018,04,24,14,56,19.80
2018,04,24,14,57,19.90
2018,04,24,14,58,20.00
2018,04,24,14,59,20.10
2018,04,24,15,00,20.10
2018,04,24,15,01,20.20
2018,04,24,15,02,20.30
2018,04,24,15,03,20.40
2018,04,24,15,04,20.40
2018,04,24,15,05,20.50
2018,04,24,15,06,20.60
2018,04,24,15,07,20.60
2018,04,24,15,08,20.60
2018,04,24,15,09,20.60
2018,04,24,15,10,20.70
2018,04,24,15,11,20.70
2018,04,24,15,12,20.70
2018,04,24,15,13,20.70
2018,04,24,15,14,20.70
2018,04,24,15,15,20.70
2018,04,24,15,16,20.80
2018,04,24,15,17,20.80
2018,04,24,15,18,20.90
2018,04,24,15,19,20.90
2018,04,24,15,20,21.00
2018,04,24,15,21,21.10
2018,04,24,15,22,21.10
2018,04,24,15,23,21.20
2018,04,24,15,24,21.20
2018,04,24,15,25,21.20
2018,04,24,15,26,21.20
2018,04,24,15,27,21.30
2018,04,24,15,28,21.30
2018,04,24,15,29,21.30
2018,04,24,15,30,21.30
2018,04,24,15,31,21.30
2018,04,24,15,32,21.30
2018,04,24,15,33,21.30
2018,04,24,15,34,21.30
2018,04,24,15,35,21.30
2018,04,24,15,36,21.30
2018,04,24,15,37,21.30
2018,04,24,15,38,21.30
2018,04,24,15,39,21.30
2018,04,24,15,40,21.30
2018,04,24,15,41,21.30
2018,04,24,15,42,21.30
2018,04,24,15,43,21.30
2018,04,24,15,44,21.30
2018,04,24,15,45,21.30
2018,04,24,15,46,21.20
2018,04,24,15,47,21.20
2018,04,24,15,48,21.20
2018,04,24,15,49,21.20
2018,04,24,15,50,21.20
2018,04,24,15,51,21.20
2018,04,24,15,52,21.20
2018,04,24,15,53,21.20
2018,04,24,15,54,21.20
2018,04,24,15,55,21.10
2018,04,24,15,56,21.10
2018,04,24,15,57,21.10
2018,04,24,15,58,21.10
2018,04,24,15,59,21.10
2018,04,24,16,00,21.10
2018,04,24,16,01,21.10
2018,04,24,16,02,21.10
2018,04,24,16,03,21.10
2018,04,24,16,04,21.10
2018,04,24,16,05,21.10
2018,04,24,16,06,21.10
2018,04,24,16,07,21.20
2018,04,24,16,08,21.20
2018,04,24,16,09,21.20
2018,04,24,16,10,21.30
2018,04,24,16,11,21.30
2018,04,24,16,12,21.40
2018,04,24,16,13,21.40
2018,04,24,16,14,21.40
2018,04,24,16,15,21.50
2018,04,24,16,16,21.50
2018,04,24,16,17,21.50
2018,04,24,16,18,21.50
2018,04,24,16,19,21.60
2018,04,24,16,20,21.60
2018,04,24,16,21,21.70
2018,04,24,16,22,21.70
2018,04,24,16,23,21.80
2018,04,24,16,24,21.80
2018,04,24,16,25,21.80
2018,04,24,16,26,21.80
2018,04,24,16,27,21.80
2018,04,24,16,28,21.80
2018,04,24,16,29,21.70
2018,04,24,16,30,21.60
2018,04,24,16,31,21.60
2018,04,24,16,32,21.60
2018,04,24,16,33,21.60
2018,04,24,16,34,21.60
2018,04,24,16,35,21.60
2018,04,24,16,36,21.60
2018,04,24,16,37,21.60
2018,04,24,16,38,21.70
2018,04,24,16,39,21.70
2018,04,24,16,40,21.70
2018,04,24,16,41,21.70
2018,04,24,16,42,21.70
2018,04,24,16,43,21.70
2018,04,24,16,44,21.60
2018,04,24,16,45,21.50
2018,04,24,16,46,21.40
2018,04,24,16,47,21.40
2018,04,24,16,48,21.30
2018,04,24,16,49,21.30
2018,04,24,16,50,21.30
2018,04,24,16,51,21.30
2018,04,24,16,52,21.20
2018,04,24,16,53,21.20
2018,04,24,16,54,21.20
2018,04,24,16,55,21.10
2018,04,24,16,56,21.10
2018,04,24,16,57,21.10
2018,04,24,16,58,21.10
2018,04,24,16,59,21.10
2018,04,24,17,00,21.10
2018,04,24,17,01,21.20
2018,04,24,17,02,21.20
2018,04,24,17,03,21.20
2018,04,24,17,04,21.20
2018,04,24,17,05,21.20
2018,04,24,17,06,21.20
2018,04,24,17,07,21.30
2018,04,24,17,08,21.20
2018,04,24,17,09,21.20
2018,04,24,17,10,21.10
2018,04,24,17,11,20.90
2018,04,24,17,12,20.90
2018,04,24,17,13,20.80
2018,04,24,17,14,20.80
2018,04,24,17,15,20.70
2018,04,24,17,16,20.70
2018,04,24,17,17,20.70
2018,04,24,17,18,20.70
2018,04,24,17,19,20.60
2018,04,24,17,20,20.60
2018,04,24,17,21,20.60
2018,04,24,17,22,20.50
2018,04,24,17,23,20.50
2018,04,24,17,24,20.50
2018,04,24,17,25,20.40
2018,04,24,17,26,20.40
2018,04,24,17,27,20.40
2018,04,24,17,28,20.40
2018,04,24,17,29,20.40
2018,04,24,17,30,20.40
2018,04,24,17,31,20.40
2018,04,24,17,32,20.40
2018,04,24,17,33,20.40
2018,04,24,17,34,20.30
2018,04,24,17,35,20.30
2018,04,24,17,36,20.20
2018,04,24,17,37,20.20
2018,04,24,17,38,20.20
2018,04,24,17,39,20.20
2018,04,24,17,40,20.20
2018,04,24,17,41,20.20
2018,04,24,17,42,20.20
2018,04,24,17,43,20.20
2018,04,24,17,44,20.20
2018,04,24,17,45,20.20